Las Cruces, NM

6:10 PM MST on February 27, 2017 (GMT -0700)
Las Cruces International

Weather History for KLRU - November, 2013

Change the Weather History Date:

Monday, November 4, 2013

  Actual Average Record
Temperature  
Mean Temperature 56 °F -  
Max Temperature 70 °F 65 °F 80 °F (2007)
Min Temperature 42 °F 42 °F 30 °F (2004)
Degree Days  
Heating Degree Days 9    
Growing Degree Days 6 (Base 50)    
Moisture  
Dew Point 43 °F    
Average Humidity 60    
Maximum Humidity 96    
Minimum Humidity 31    
Precipitation  
Precipitation 0.00 in - - ()
Sea Level Pressure  
Sea Level Pressure 29.91 in    
Wind  
Wind Speed 5 mph (South)    
Max Wind Speed 12 mph    
Max Gust Speed 16 mph    
Visibility 10 miles    
Events      
Averages and records for this station are not official NWS values.
T = Trace of Precipitation, MM = Missing Value Source: NWS Daily Summary

Daily Weather History Graph

Daily Weather History Graph

Search for Another Location

Airport or City:

Trip Planner

Search our weather history database for the weather conditions in past years. The results will help you decide how hot, cold, wet, or windy it might be!

Date:

Astronomy

Nov. 04, 2013 Rise Set
Actual Time 6:27 AM MST 5:14 PM MST
Civil Twilight 6:02 AM MST 5:40 PM MST
Nautical Twilight 5:32 AM MST 6:09 PM MST
Astronomical Twilight 5:04 AM MST 6:37 PM MST
Moon 7:37 AM MST (11/4) 6:25 PM MST (11/4)
Length of Visible Light 11h 38m
Length of Day
10h 47m
New Moon, 2% of the Moon is Illuminated
Nov 4
New Moon
Nov 9
First Quarter
Nov 17
Full
Nov 25
Last Quarter
Dec 2
New

Hourly Weather History & Observations

Time (MST) Temp. Dew Point Humidity Pressure Visibility Wind Dir Wind Speed Gust Speed Precip Events Conditions
12:15 AM 52.0 °F 39.4 °F 62% 29.91 in 10.0 mi WSW 4.6 mph - N/A   Scattered Clouds
12:35 AM 52.7 °F 40.5 °F 63% 29.92 in 10.0 mi SSW 5.8 mph - N/A   Mostly Cloudy
12:55 AM 52.2 °F 40.3 °F 64% 29.92 in 10.0 mi SW 3.5 mph - N/A   Overcast
1:15 AM 51.8 °F 40.8 °F 66% 29.92 in 10.0 mi Calm Calm - N/A   Overcast
1:35 AM 51.3 °F 41.4 °F 69% 29.92 in 10.0 mi East 4.6 mph - N/A   Scattered Clouds
1:55 AM 48.9 °F 39.7 °F 71% 29.93 in 10.0 mi East 3.5 mph - N/A   Clear
2:15 AM 48.2 °F 40.5 °F 75% 29.92 in 10.0 mi Calm Calm - N/A   Clear
2:35 AM 47.5 °F 42.6 °F 83% 29.92 in 10.0 mi SE 3.5 mph - N/A   Clear
2:55 AM 48.0 °F 43.7 °F 85% 29.92 in 10.0 mi ESE 3.5 mph - N/A   Clear
3:15 AM 47.3 °F 43.7 °F 87% 29.92 in 10.0 mi ESE 4.6 mph - N/A   Clear
3:35 AM 48.2 °F 44.4 °F 87% 29.92 in 10.0 mi SE 5.8 mph - N/A   Scattered Clouds
3:55 AM 47.8 °F 44.6 °F 89% 29.92 in 10.0 mi SSE 5.8 mph - N/A   Mostly Cloudy
4:15 AM 49.1 °F 45.5 °F 87% 29.92 in 10.0 mi South 4.6 mph - N/A   Mostly Cloudy
4:35 AM 50.4 °F 46.6 °F 87% 29.93 in 10.0 mi South 4.6 mph - N/A   Mostly Cloudy
4:55 AM 49.3 °F 46.4 °F 90% 29.93 in 10.0 mi South 4.6 mph - N/A   Mostly Cloudy
5:15 AM 48.6 °F 46.0 °F 91% 29.94 in 10.0 mi South 3.5 mph - N/A   Mostly Cloudy
5:35 AM 47.1 °F 45.1 °F 93% 29.94 in 10.0 mi South 4.6 mph - N/A   Scattered Clouds
5:55 AM 48.2 °F 46.2 °F 93% 29.94 in 10.0 mi SSW 3.5 mph - N/A   Scattered Clouds
6:15 AM 43.9 °F 42.4 °F 95% 29.95 in 10.0 mi Calm Calm - N/A   Clear
6:35 AM 42.8 °F 41.7 °F 96% 29.95 in 10.0 mi Calm Calm - N/A   Clear
6:55 AM 42.6 °F 41.4 °F 95% 29.96 in 10.0 mi Calm Calm - N/A   Clear
7:15 AM 47.5 °F 45.9 °F 94% 29.96 in 10.0 mi SW 3.5 mph - N/A   Clear
7:35 AM 50.7 °F 48.0 °F 90% 29.97 in 10.0 mi SW 3.5 mph - N/A   Mostly Cloudy
7:55 AM 53.2 °F 49.1 °F 86% 29.98 in 10.0 mi Calm Calm - N/A   Mostly Cloudy
8:15 AM 55.9 °F 49.5 °F 79% 29.99 in 10.0 mi South 5.8 mph - N/A   Overcast
8:35 AM 56.5 °F 49.3 °F 77% 29.99 in 10.0 mi SSE 8.1 mph - N/A   Mostly Cloudy
8:55 AM 57.0 °F 49.5 °F 76% 29.99 in 10.0 mi South 5.8 mph - N/A   Scattered Clouds
9:15 AM 58.1 °F 49.5 °F 73% 29.99 in 10.0 mi SSE 5.8 mph - N/A   Scattered Clouds
9:35 AM 59.9 °F 49.5 °F 68% 29.99 in 10.0 mi South 6.9 mph - N/A   Scattered Clouds
9:55 AM 60.6 °F 49.1 °F 66% 29.99 in 10.0 mi South 5.8 mph - N/A   Clear
10:15 AM 62.1 °F 49.1 °F 62% 29.98 in 10.0 mi South 5.8 mph - N/A   Clear
10:35 AM 62.6 °F 48.9 °F 61% 29.98 in 10.0 mi SSE 4.6 mph - N/A   Clear
10:55 AM 64.8 °F 48.9 °F 56% 29.96 in 10.0 mi SSW 3.5 mph - N/A   Clear
11:15 AM 64.6 °F 47.7 °F 54% 29.96 in 10.0 mi South 6.9 mph - N/A   Clear
11:35 AM 66.6 °F 47.3 °F 50% 29.95 in 10.0 mi SE 6.9 mph - N/A   Clear
11:55 AM 66.9 °F 47.5 °F 50% 29.94 in 10.0 mi SE 6.9 mph - N/A   Clear
12:15 PM 68.2 °F 46.9 °F 47% 29.93 in 10.0 mi SSE 10.4 mph - N/A   Clear
12:35 PM 68.7 °F 46.0 °F 44% 29.91 in 10.0 mi SSE 11.5 mph - N/A   Scattered Clouds
12:55 PM 67.6 °F 44.8 °F 44% 29.90 in 10.0 mi South 9.2 mph - N/A   Scattered Clouds
1:15 PM 67.1 °F 44.8 °F 45% 29.90 in 10.0 mi SSE 4.6 mph 9.2 mph N/A   Overcast
1:35 PM 67.6 °F 43.3 °F 41% 29.88 in 10.0 mi South 4.6 mph - N/A   Overcast
1:55 PM 67.8 °F 43.0 °F 41% 29.88 in 10.0 mi Calm Calm - N/A   Overcast
2:15 PM 69.4 °F 42.4 °F 38% 29.87 in 10.0 mi SSW 9.2 mph - N/A   Overcast
2:35 PM 70.3 °F 42.1 °F 36% 29.87 in 10.0 mi WSW 4.6 mph - N/A   Overcast
2:55 PM 68.9 °F 41.7 °F 37% 29.87 in 10.0 mi Calm Calm - N/A   Mostly Cloudy
3:15 PM 70.0 °F 40.5 °F 34% 29.87 in 10.0 mi South 11.5 mph 16.1 mph N/A   Overcast
3:35 PM 70.3 °F 40.6 °F 34% 29.86 in 10.0 mi South 11.5 mph - N/A   Mostly Cloudy
3:55 PM 69.6 °F 39.6 °F 33% 29.86 in 10.0 mi SSE 9.2 mph - N/A   Mostly Cloudy
4:15 PM 69.6 °F 37.6 °F 31% 29.87 in 10.0 mi SSW 6.9 mph - N/A   Mostly Cloudy
4:35 PM 70.0 °F 38.3 °F 31% 29.86 in 10.0 mi South 10.4 mph 16.1 mph N/A   Overcast
4:55 PM 68.4 °F 38.3 °F 33% 29.86 in 10.0 mi South 8.1 mph - N/A   Scattered Clouds
5:15 PM 66.0 °F 37.6 °F 35% 29.86 in 10.0 mi South 5.8 mph - N/A   Clear
5:35 PM 63.5 °F 38.8 °F 40% 29.86 in 10.0 mi SSE 6.9 mph - N/A   Clear
5:55 PM 62.1 °F 39.6 °F 44% 29.87 in 10.0 mi SSE 5.8 mph - N/A   Clear
6:15 PM 61.2 °F 40.1 °F 46% 29.87 in 10.0 mi SSE 6.9 mph - N/A   Clear
6:35 PM 61.7 °F 40.1 °F 45% 29.87 in 10.0 mi SSE 6.9 mph - N/A   Clear
6:55 PM 61.0 °F 40.1 °F 46% 29.87 in 10.0 mi South 6.9 mph - N/A   Scattered Clouds
7:15 PM 61.3 °F 40.1 °F 46% 29.87 in 10.0 mi South 6.9 mph - N/A   Scattered Clouds
7:35 PM 60.6 °F 40.3 °F 47% 29.88 in 10.0 mi South 6.9 mph - N/A   Clear
7:55 PM 60.1 °F 40.3 °F 48% 29.88 in 10.0 mi South 8.1 mph - N/A   Clear
8:15 PM 60.1 °F 40.3 °F 48% 29.88 in 10.0 mi South 9.2 mph - N/A   Scattered Clouds
8:35 PM 61.3 °F 40.3 °F 46% 29.88 in 10.0 mi South 9.2 mph - N/A   Mostly Cloudy
8:55 PM 61.0 °F 40.1 °F 46% 29.88 in 10.0 mi SSW 8.1 mph - N/A   Overcast
9:15 PM 61.0 °F 40.3 °F 46% 29.89 in 10.0 mi SSW 10.4 mph - N/A   Overcast
9:35 PM 60.3 °F 41.0 °F 49% 29.89 in 10.0 mi SSW 10.4 mph - N/A   Mostly Cloudy
9:55 PM 60.4 °F 41.9 °F 50% 29.90 in 10.0 mi SW 10.4 mph - N/A   Overcast
10:15 PM 60.8 °F 41.2 °F 48% 29.90 in 10.0 mi SSW 9.2 mph - N/A   Overcast
10:35 PM 59.7 °F 41.2 °F 50% 29.90 in 10.0 mi SSW 10.4 mph - N/A   Scattered Clouds
10:55 PM 59.9 °F 41.9 °F 51% 29.89 in 10.0 mi SSW 10.4 mph - N/A   Scattered Clouds
11:15 PM 59.4 °F 41.4 °F 51% 29.88 in 10.0 mi SSW 9.2 mph - N/A   Scattered Clouds
11:35 PM 59.9 °F 40.3 °F 48% 29.88 in 10.0 mi SSW 10.4 mph - N/A   Scattered Clouds
11:55 PM 59.7 °F 40.1 °F 48% 29.88 in 10.0 mi SSW 10.4 mph - N/A   Scattered Clouds